Time,TemperatureF,DewpointF,PressureIn,WindDirection,WindDirectionDegrees,WindSpeedMPH,WindSpeedGustMPH,Humidity,HourlyPrecipIn,Conditions,Clouds,dailyrainin,SolarRadiationWatts/m^2,SoftwareType,DateUTC
2013-12-25 00:01:00,-3.0,-9.0,-100.00,North,-999,0.0,0.0,75,0.00,,,0.00,0.000000,,2013-12-25 05:01:00,
2013-12-25 00:22:00,-3.0,-9.0,-100.00,North,-999,0.0,0.0,75,0.00,,,0.00,0.000000,,2013-12-25 05:22:00,
2013-12-25 00:33:00,-3.0,-9.0,-100.00,North,-999,0.0,0.0,75,0.00,,,0.00,0.000000,,2013-12-25 05:33:00,
2013-12-25 00:43:00,-3.0,-9.0,-100.00,North,-999,0.0,0.0,75,0.00,,,0.00,0.000000,,2013-12-25 05:43:00,
2013-12-25 00:53:00,-3.0,-9.0,-100.00,North,-999,0.0,0.0,75,0.00,,,0.00,0.000000,,2013-12-25 05:53:00,
2013-12-25 01:01:00,-4.0,-10.0,-100.00,North,-999,0.0,0.0,76,0.00,,,0.00,0.000000,,2013-12-25 06:01:00,
2013-12-25 01:42:00,-4.0,-10.0,-100.00,North,-999,0.0,0.0,76,0.00,,,0.00,0.000000,,2013-12-25 06:42:00,
2013-12-25 01:52:00,-4.0,-10.0,-100.00,North,-999,0.0,0.0,76,0.00,,,0.00,0.000000,,2013-12-25 06:52:00,
2013-12-25 02:01:00,-5.0,-11.0,-100.00,North,-999,0.0,0.0,76,0.00,,,0.00,0.000000,,2013-12-25 07:01:00,
2013-12-25 02:42:00,-5.0,-11.0,-100.00,North,-999,0.0,0.0,76,0.00,,,0.00,0.000000,,2013-12-25 07:42:00,
2013-12-25 02:52:00,-5.0,-11.0,-100.00,North,-999,0.0,0.0,76,0.00,,,0.00,0.000000,,2013-12-25 07:52:00,
2013-12-25 03:01:00,-5.0,-11.0,-100.00,North,-999,0.0,0.0,75,0.00,,,0.00,0.000000,,2013-12-25 08:01:00,
2013-12-25 03:42:00,-5.0,-11.0,-100.00,North,-999,0.0,0.0,75,0.00,,,0.00,0.000000,,2013-12-25 08:42:00,
2013-12-25 03:53:00,-5.0,-11.0,-100.00,North,-999,0.0,0.0,75,0.00,,,0.00,0.000000,,2013-12-25 08:53:00,
2013-12-25 04:01:00,-6.0,-12.0,-100.00,North,-999,0.0,0.0,74,0.00,,,0.00,0.000000,,2013-12-25 09:01:00,
2013-12-25 04:43:00,-6.0,-12.0,-100.00,North,-999,0.0,0.0,74,0.00,,,0.00,0.000000,,2013-12-25 09:43:00,
2013-12-25 04:52:00,-6.0,-12.0,-100.00,North,-999,0.0,0.0,74,0.00,,,0.00,0.000000,,2013-12-25 09:52:00,
2013-12-25 05:01:00,-7.0,-13.0,-100.00,North,-999,0.0,0.0,73,0.00,,,0.00,0.000000,,2013-12-25 10:01:00,
2013-12-25 05:43:00,-7.0,-13.0,-100.00,North,-999,0.0,0.0,73,0.00,,,0.00,0.000000,,2013-12-25 10:43:00,
2013-12-25 05:53:00,-7.0,-13.0,-100.00,North,-999,0.0,0.0,73,0.00,,,0.00,0.000000,,2013-12-25 10:53:00,
2013-12-25 06:01:00,-9.0,-16.0,-100.00,North,-999,0.0,0.0,72,0.00,,,0.00,0.000000,,2013-12-25 11:01:00,
2013-12-25 06:43:00,-9.0,-16.0,-100.00,North,-999,0.0,0.0,72,0.00,,,0.00,0.000000,,2013-12-25 11:43:00,
2013-12-25 06:52:00,-9.0,-16.0,-100.00,North,-999,0.0,0.0,72,0.00,,,0.00,0.000000,,2013-12-25 11:52:00,
2013-12-25 07:01:00,-10.0,-17.0,-100.00,North,-999,0.0,0.0,72,0.00,,,0.00,0.000000,,2013-12-25 12:01:00,
2013-12-25 07:42:00,-10.0,-17.0,-100.00,North,-999,0.0,0.0,72,0.00,,,0.00,0.000000,,2013-12-25 12:42:00,
2013-12-25 07:52:00,-10.0,-17.0,-100.00,North,-999,0.0,0.0,72,0.00,,,0.00,0.000000,,2013-12-25 12:52:00,
2013-12-25 08:01:00,-11.0,-18.0,-100.00,North,-999,0.0,0.0,71,0.00,,,0.00,2.000000,,2013-12-25 13:01:00,
2013-12-25 08:42:00,-11.0,-18.0,-100.00,North,-999,0.0,0.0,71,0.00,,,0.00,2.000000,,2013-12-25 13:42:00,
2013-12-25 08:52:00,-11.0,-18.0,-100.00,North,-999,0.0,0.0,71,0.00,,,0.00,2.000000,,2013-12-25 13:52:00,
2013-12-25 09:01:00,-7.0,-14.0,-100.00,North,-999,0.0,0.0,72,0.00,,,0.00,14.000000,,2013-12-25 14:01:00,
2013-12-25 09:42:00,-7.0,-14.0,-100.00,North,-999,0.0,0.0,72,0.00,,,0.00,14.000000,,2013-12-25 14:42:00,
2013-12-25 09:52:00,-7.0,-14.0,-100.00,North,-999,0.0,0.0,72,0.00,,,0.00,14.000000,,2013-12-25 14:52:00,
2013-12-25 10:01:00,5.0,-5.0,-100.00,North,-999,0.0,0.0,63,0.00,,,0.00,126.000000,,2013-12-25 15:01:00,
2013-12-25 10:43:00,5.0,-5.0,-100.00,North,-999,0.0,0.0,63,0.00,,,0.00,126.000000,,2013-12-25 15:43:00,
2013-12-25 10:54:00,5.0,-5.0,-100.00,North,-999,0.0,0.0,63,0.00,,,0.00,126.000000,,2013-12-25 15:54:00,
2013-12-25 11:01:00,9.0,-2.0,-100.00,North,-999,0.0,0.0,61,0.00,,,0.00,169.000000,,2013-12-25 16:01:00,
2013-12-25 11:42:00,9.0,-2.0,-100.00,North,-999,0.0,0.0,61,0.00,,,0.00,169.000000,,2013-12-25 16:42:00,
2013-12-25 11:53:00,9.0,-2.0,-100.00,North,-999,0.0,0.0,61,0.00,,,0.00,169.000000,,2013-12-25 16:53:00,
2013-12-25 12:01:00,10.0,-1.0,-100.00,North,-999,0.0,0.0,61,0.00,,,0.00,182.000000,,2013-12-25 17:01:00,
2013-12-25 12:42:00,10.0,-1.0,-100.00,North,-999,0.0,0.0,61,0.00,,,0.00,182.000000,,2013-12-25 17:42:00,
2013-12-25 12:52:00,10.0,-1.0,-100.00,North,-999,0.0,0.0,61,0.00,,,0.00,182.000000,,2013-12-25 17:52:00,
2013-12-25 13:01:00,10.0,0.0,-100.00,North,-999,0.0,0.0,62,0.00,,,0.00,115.000000,,2013-12-25 18:01:00,
2013-12-25 13:42:00,10.0,0.0,-100.00,North,-999,0.0,0.0,62,0.00,,,0.00,115.000000,,2013-12-25 18:42:00,
2013-12-25 13:53:00,10.0,0.0,-100.00,North,-999,0.0,0.0,62,0.00,,,0.00,115.000000,,2013-12-25 18:53:00,
2013-12-25 14:01:00,12.0,1.0,-100.00,North,-999,0.0,0.0,61,0.00,,,0.00,119.000000,,2013-12-25 19:01:00,
2013-12-25 14:42:00,12.0,1.0,-100.00,North,-999,0.0,0.0,61,0.00,,,0.00,119.000000,,2013-12-25 19:42:00,
2013-12-25 14:52:00,12.0,1.0,-100.00,North,-999,0.0,0.0,61,0.00,,,0.00,119.000000,,2013-12-25 19:52:00,
2013-12-25 15:01:00,10.0,3.0,-100.00,North,-999,0.0,0.0,71,0.00,,,0.00,82.000000,,2013-12-25 20:01:00,
2013-12-25 15:42:00,10.0,3.0,-100.00,North,-999,0.0,0.0,71,0.00,,,0.00,82.000000,,2013-12-25 20:42:00,
2013-12-25 15:53:00,10.0,3.0,-100.00,North,-999,0.0,0.0,71,0.00,,,0.00,82.000000,,2013-12-25 20:53:00,
2013-12-25 16:01:00,7.0,1.0,-100.00,North,-999,0.0,0.0,75,0.00,,,0.00,21.000000,,2013-12-25 21:01:00,
2013-12-25 16:43:00,7.0,1.0,-100.00,North,-999,0.0,0.0,75,0.00,,,0.00,21.000000,,2013-12-25 21:43:00,
2013-12-25 16:53:00,7.0,1.0,-100.00,North,-999,0.0,0.0,75,0.00,,,0.00,21.000000,,2013-12-25 21:53:00,
2013-12-25 17:01:00,4.0,-1.0,-100.00,North,-999,0.0,0.0,79,0.00,,,0.00,2.000000,,2013-12-25 22:01:00,
2013-12-25 17:43:00,4.0,-1.0,-100.00,North,-999,0.0,0.0,79,0.00,,,0.00,2.000000,,2013-12-25 22:43:00,
2013-12-25 17:53:00,4.0,-1.0,-100.00,North,-999,0.0,0.0,79,0.00,,,0.00,2.000000,,2013-12-25 22:53:00,
2013-12-25 18:01:00,4.0,-2.0,-100.00,North,-999,0.0,0.0,77,0.00,,,0.00,0.000000,,2013-12-25 23:01:00,
2013-12-25 18:43:00,4.0,-2.0,-100.00,North,-999,0.0,0.0,77,0.00,,,0.00,0.000000,,2013-12-25 23:43:00,
2013-12-25 18:53:00,4.0,-2.0,-100.00,North,-999,0.0,0.0,77,0.00,,,0.00,0.000000,,2013-12-25 23:53:00,
2013-12-25 19:01:00,3.0,-3.0,-100.00,North,-999,0.0,0.0,77,0.00,,,0.00,0.000000,,2013-12-26 00:01:00,
2013-12-25 19:22:00,3.0,-3.0,-100.00,North,-999,0.0,0.0,77,0.00,,,0.00,0.000000,,2013-12-26 00:22:00,
2013-12-25 19:32:00,3.0,-3.0,-100.00,North,-999,0.0,0.0,77,0.00,,,0.00,0.000000,,2013-12-26 00:32:00,
2013-12-25 19:42:00,3.0,-3.0,-100.00,North,-999,0.0,0.0,77,0.00,,,0.00,0.000000,,2013-12-26 00:42:00,
2013-12-25 19:52:00,3.0,-3.0,-100.00,North,-999,0.0,0.0,77,0.00,,,0.00,0.000000,,2013-12-26 00:52:00,
2013-12-25 20:01:00,3.0,-3.0,-100.00,North,-999,0.0,0.0,77,0.00,,,0.00,0.000000,,2013-12-26 01:01:00,
2013-12-25 20:42:00,3.0,-3.0,-100.00,North,-999,0.0,0.0,77,0.00,,,0.00,0.000000,,2013-12-26 01:42:00,
2013-12-25 20:52:00,3.0,-3.0,-100.00,North,-999,0.0,0.0,77,0.00,,,0.00,0.000000,,2013-12-26 01:52:00,
2013-12-25 21:01:00,3.0,-2.0,-100.00,North,-999,0.0,0.0,78,0.00,,,0.00,0.000000,,2013-12-26 02:01:00,
2013-12-25 21:52:00,3.0,-2.0,-100.00,North,-999,0.0,0.0,78,0.00,,,0.00,0.000000,,2013-12-26 02:52:00,
2013-12-25 22:01:00,3.0,-2.0,-100.00,North,-999,0.0,0.0,78,0.00,,,0.00,0.000000,,2013-12-26 03:01:00,
2013-12-25 22:43:00,3.0,-2.0,-100.00,North,-999,0.0,0.0,78,0.00,,,0.00,0.000000,,2013-12-26 03:43:00,
2013-12-25 22:53:00,3.0,-2.0,-100.00,North,-999,0.0,0.0,78,0.00,,,0.00,0.000000,,2013-12-26 03:53:00,
2013-12-25 23:01:00,3.0,-3.0,-100.00,North,-999,0.0,0.0,77,0.00,,,0.00,0.000000,,2013-12-26 04:01:00,
2013-12-25 23:43:00,3.0,-3.0,-100.00,North,-999,0.0,0.0,77,0.00,,,0.00,0.000000,,2013-12-26 04:43:00,
2013-12-25 23:53:00,3.0,-3.0,-100.00,North,-999,0.0,0.0,77,0.00,,,0.00,0.000000,,2013-12-26 04:53:00,